Flag for U.S.A. Weather past 2 weeks in Oakland, California, U.S.A.

Now
52 °F

Overcast.


Feels Like: 50 °F
Forecast: 52 / 58 °F
Wind: 7 mph from Southeast

Location: Metro Oakland International Airport

Current Time: Dec 18, 2014 at 5:45:31 AM

Latest Report: Dec 18, 2014 at 4:53 AM


Visibility: 10 mi

Pressure: 30.08 "Hg

Humidity: 86%

Dew point: 48 °F

Location of OaklandLocation

Historic Weather in Oakland — Graph

°F

Oakland temperature yesterday

Maximum temperature yesterday: 57 °F (at 12:53 PM)
Minimum temperature yesterday: 49 °F (at 3:53 AM)
Average temperature yesterday: 53 °F

Past Weeks' High & Low Weather Summary

 TemperatureHumidityPressure
High67 °F (Dec 8, 12:53 PM)100% (Dec 10, 12:04 AM)30.23 "Hg (Dec 10, 12:04 AM)
Low47 °F (Dec 13, 2:53 AM)58% (Dec 14, 12:53 PM)29.52 "Hg (Dec 11, 7:53 AM)
Average56 °F85%30.00 "Hg
* Reported Dec 3 4:53 AM — Dec 18 4:53 AM, Oakland, Weather by CustomWeather, © 2014

Note: Actual official high and low records may vary slightly from our data, if they occured in-between our weather recording intervals... More about our weather records

Advertising

Oakland weather history for previous 24 hours

 ConditionsComfort  
Time TempWeatherWind HumidityBarometerVisibility
4:53 AM
Dec 18
52 °FOvercast.7 mph86%30.08 "Hg10 mi
3:53 AM52 °FOvercast.7 mph86%30.07 "Hg10 mi
2:53 AM51 °FLow clouds.10 mph89%30.07 "Hg10 mi
1:53 AM51 °FLight rain. Overcast.7 mph89%30.07 "Hg10 mi
12:53 AM51 °FLight rain. Overcast.10 mph89%30.06 "Hg8 mi
11:53 PM
Dec 17
51 °FRain. Overcast.8 mph89%30.07 "Hg7 mi
10:53 PM51 °FLight rain. Fog.8 mph89%30.07 "Hg6 mi
9:53 PM51 °FLight rain. Mostly cloudy.12 mph89%30.07 "Hg7 mi
8:53 PM53 °FRain. Mostly cloudy.10 mph86%30.07 "Hg8 mi
7:53 PM53 °FOvercast.13 mph86%30.06 "Hg10 mi
6:53 PM53 °FMostly cloudy.10 mph86%30.06 "Hg10 mi
5:53 PM53 °FLight rain. Mostly cloudy.5 mph89%30.05 "Hg9 mi
4:53 PM54 °FLight rain. Mostly cloudy.6 mph86%30.05 "Hg10 mi
3:53 PM56 °FLight rain. Cloudy.6 mph77%30.04 "Hg10 mi
2:53 PM57 °FMostly cloudy.6 mph72%30.03 "Hg10 mi
1:53 PM57 °FMostly cloudy.10 mph74%30.03 "Hg10 mi
12:53 PM57 °FPartly sunny.9 mph81%30.06 "Hg10 mi
11:53 AM55 °FPartly sunny.9 mph87%30.06 "Hg10 mi
10:53 AM53 °FCloudy.9 mph89%30.09 "Hg10 mi
9:53 AM53 °FMostly cloudy.9 mph89%30.08 "Hg10 mi
8:53 AM52 °FBroken clouds.9 mph89%30.06 "Hg10 mi
7:53 AM51 °FMostly cloudy.9 mph89%30.03 "Hg10 mi
6:53 AM50 °FPartly cloudy.5 mph93%30.01 "Hg10 mi
5:53 AM51 °FPassing clouds.7 mph89%30.00 "Hg10 mi
Weather by CustomWeather, © 2014

See weather overviewHow to use our weather pages